SCP
0 0 0 0 0 0 0 0 0 0 0 0 0 0 0 0 0 0 0 0 0 0
0 0 0 0 0 0 0 0 0 0 0 0 0 0 0 0 0 0 0 0 0 0
0 0 0 0 0 0 0 0 0 0 0 0 0 0 0 0 0 0 0 0 0 0
0 0 0 0 0 0 0 0 0 0 0 0 0 0 0 0 0 0 0 0 0 0
0 0 0 0 0 0 0 0 0 0 0 0 0 0 0 0 0 0 0 0 0 0
0 0 0 0 0 0 0 0 0 0 0 0 0 0 0 0 0 0 0 0 0 0
0 0 0 0 0 0 0 0 0 0 0 0 0 0 0 0 0 0 0 0 0 0
0 0 0 0 0 0 0 0 0 0 0 0 0 0 0 0 0 0 0 0 0 0
0 0 0 0 0 0 0 0 0 0 0 0 0 0 0 0 0 0 0 0 0 0
0 0 0 0 0 0 0 0 0 0 0 0 0 0 0 0 0 0 0 0 0 0
0 0 0 0 0 0 0 0 0 0 0 0 0 0 0 0 0 0 0 0 0 0
0 0 0 0 0 0 0 0 0 0 0 0 0 0 0 0 0 0 0 0 0 0
0 0 0 0 0 0 0 0 0 0 0 0 0 0 0 0 0 0 0 0 0 0
0 0 0 0 0 0 0 0 0 0 0 0 0 0 0 0 0 0 0 0 0 0
Wind_Speed_500mb
59 55 51 48 47 45 43 42 40 38 36 32 28 26 23 20 17 15 14 12 10 10
65 61 57 51 49 45 43 43 40 37 34 31 29 26 24 21 19 17 15 14 12 13
68 63 57 53 51 47 45 42 40 38 36 33 30 28 25 23 21 20 18 16 16 17
69 65 62 57 53 52 49 45 43 40 37 35 32 29 27 25 23 22 20 19 20 21
71 68 66 64 57 55 52 48 45 42 40 37 34 32 29 27 25 24 23 23 24 25
74 70 69 65 60 58 55 51 48 45 42 39 36 34 31 30 28 27 27 27 29 31
74 71 68 64 61 58 55 51 48 45 42 40 38 37 35 33 32 31 32 34 35 37
71 68 64 63 61 57 54 51 49 46 45 43 41 39 38 36 35 36 37 39 41 40
67 64 63 61 58 56 54 52 50 49 46 43 42 40 40 38 39 39 38 38 39 40
66 63 62 58 55 54 53 52 51 48 45 43 42 41 39 37 36 34 34 36 39 41
67 63 60 57 55 55 54 50 46 43 42 40 37 38 33 30 30 32 34 35 38 40
67 65 63 61 57 54 50 47 44 41 38 34 30 30 28 26 26 27 29 32 37 41
63 61 60 58 56 51 46 43 40 37 33 30 26 26 25 22 20 23 28 35 39 43
56 57 56 55 50 47 44 40 36 32 28 25 22 18 18 20 25 28 34 40 45 48
Wind_Direction_500mb
204 204 204 204 204 202 200 198 196 195 195 193 192 194 197 201 206 213 223 232 246 261
206 206 205 207 207 205 204 205 203 203 202 199 200 202 206 209 216 225 236 246 260 275
210 210 209 211 211 211 212 212 210 209 208 208 209 212 216 220 225 232 242 256 270 281
213 212 213 214 214 216 217 215 214 214 214 215 217 219 223 228 233 241 250 259 270 279
212 213 213 215 216 217 218 218 218 218 218 220 222 225 229 234 241 248 257 266 275 281
213 213 215 216 217 218 219 219 220 221 223 225 227 230 234 240 247 255 262 268 275 281
213 215 216 216 218 219 219 221 222 223 225 227 230 234 240 246 252 257 263 269 274 280
214 215 215 216 218 219 219 220 221 222 225 229 234 239 245 250 256 261 266 272 276 281
212 212 213 215 216 216 218 219 220 222 226 231 237 242 247 253 258 263 266 272 280 283
210 209 211 212 212 212 214 216 218 222 227 232 237 242 246 252 257 264 271 276 280 283
207 207 207 206 206 207 212 216 217 219 221 226 230 240 246 252 260 267 272 277 281 284
205 204 204 204 205 207 209 209 209 211 213 216 222 240 249 255 262 270 277 282 285 289
202 202 200 199 199 200 200 201 199 200 202 208 217 238 252 260 272 284 290 293 297 298
191 192 193 191 190 190 188 188 187 189 193 203 215 237 262 282 296 298 297 299 301 299
Wind_Speed_850mb
59 55 51 48 47 45 43 42 40 38 36 32 28 26 23 20 17 15 14 12 10 10
65 61 57 51 49 45 43 43 40 37 34 31 29 26 24 21 19 17 15 14 12 13
68 63 57 53 51 47 45 42 40 38 36 33 30 28 25 23 21 20 18 16 16 17
69 65 62 57 53 52 49 45 43 40 37 35 32 29 27 25 23 22 20 19 20 21
71 68 66 64 57 55 52 48 45 42 40 37 34 32 29 27 25 24 23 23 24 25
74 70 69 65 60 58 55 51 48 45 42 39 36 34 31 30 28 27 27 27 29 31
74 71 68 64 61 58 55 51 48 45 42 40 38 37 35 33 32 31 32 34 35 37
71 68 64 63 61 57 54 51 49 46 45 43 41 39 38 36 35 36 37 39 41 40
67 64 63 61 58 56 54 52 50 49 46 43 42 40 40 38 39 39 38 38 39 40
66 63 62 58 55 54 53 52 51 48 45 43 42 41 39 37 36 34 34 36 39 41
67 63 60 57 55 55 54 50 46 43 42 40 37 38 33 30 30 32 34 35 38 40
67 65 63 61 57 54 50 47 44 41 38 34 30 30 28 26 26 27 29 32 37 41
63 61 60 58 56 51 46 43 40 37 33 30 26 26 25 22 20 23 28 35 39 43
56 57 56 55 50 47 44 40 36 32 28 25 22 18 18 20 25 28 34 40 45 48
Wind_Direction_850mb
204 204 204 204 204 202 200 198 196 195 195 193 192 194 197 201 206 213 223 232 246 261
206 206 205 207 207 205 204 205 203 203 202 199 200 202 206 209 216 225 236 246 260 275
210 210 209 211 211 211 212 212 210 209 208 208 209 212 216 220 225 232 242 256 270 281
213 212 213 214 214 216 217 215 214 214 214 215 217 219 223 228 233 241 250 259 270 279
212 213 213 215 216 217 218 218 218 218 218 220 222 225 229 234 241 248 257 266 275 281
213 213 215 216 217 218 219 219 220 221 223 225 227 230 234 240 247 255 262 268 275 281
213 215 216 216 218 219 219 221 222 223 225 227 230 234 240 246 252 257 263 269 274 280
214 215 215 216 218 219 219 220 221 222 225 229 234 239 245 250 256 261 266 272 276 281
212 212 213 215 216 216 218 219 220 222 226 231 237 242 247 253 258 263 266 272 280 283
210 209 211 212 212 212 214 216 218 222 227 232 237 242 246 252 257 264 271 276 280 283
207 207 207 206 206 207 212 216 217 219 221 226 230 240 246 252 260 267 272 277 281 284
205 204 204 204 205 207 209 209 209 211 213 216 222 240 249 255 262 270 277 282 285 289
202 202 200 199 199 200 200 201 199 200 202 208 217 238 252 260 272 284 290 293 297 298
191 192 193 191 190 190 188 188 187 189 193 203 215 237 262 282 296 298 297 299 301 299